NOZ173 ENML-ENVA

Flight info

Callsign NOZ173
Flight time 0h 27m
Altitude 21000
Route NELSU
Aircraft B38M/M-SDE1FGHILORVWXY/HB1

Departure

Time 2026-05-06 13:58
Airport Molde Airport, Årø (ENML)

Arrival

Time 2026-05-06 14:26
Airport Trondheim Airport, Værnes (ENVA)
Time Latitude Longitude Altitude Speed Heading
2026-05-06 13:46 62.74606 7.26151 30 ft 0 kts 341°
2026-05-06 13:53 62.74592 7.26161 30 ft 3 kts 341°
2026-05-06 13:53 62.74574 7.26167 25 ft 3 kts 27°
2026-05-06 13:53 62.74565 7.26148 26 ft 0 kts 66°
2026-05-06 13:55 62.74567 7.26158 26 ft 3 kts 66°
2026-05-06 13:55 62.74537 7.26262 23 ft 16 kts 155°
2026-05-06 13:56 62.74518 7.26500 25 ft 21 kts 70°
2026-05-06 13:56 62.74578 7.26867 23 ft 30 kts 71°
2026-05-06 13:56 62.74652 7.27347 22 ft 35 kts 71°
2026-05-06 13:56 62.74732 7.27862 25 ft 36 kts 71°
2026-05-06 13:57 62.74809 7.28362 24 ft 24 kts 72°
2026-05-06 13:57 62.74834 7.28629 23 ft 19 kts 80°
2026-05-06 13:57 62.74873 7.28730 18 ft 5 kts 297°
2026-05-06 13:57 62.74866 7.28680 19 ft 5 kts 245°
2026-05-06 13:58 62.74799 7.28293 22 ft 67 kts 250°
2026-05-06 13:58 62.74559 7.26762 22 ft 144 kts 251°
2026-05-06 13:58 62.74184 7.24363 402 ft 182 kts 251°
2026-05-06 13:58 62.73749 7.21634 1362 ft 192 kts 246°
2026-05-06 13:59 62.72930 7.19370 2275 ft 198 kts 216°
2026-05-06 13:59 62.71550 7.18379 2829 ft 226 kts 187°
2026-05-06 13:59 62.69815 7.18769 2842 ft 282 kts 167°
2026-05-06 13:59 62.68024 7.20915 3660 ft 300 kts 139°
2026-05-06 14:00 62.66938 7.24652 5364 ft 289 kts 111°
2026-05-06 14:00 62.66706 7.28881 6992 ft 279 kts 85°
2026-05-06 14:00 62.67296 7.32921 8015 ft 288 kts 58°
2026-05-06 14:00 62.68468 7.36511 8962 ft 292 kts 56°
2026-05-06 14:01 62.69616 7.40192 9964 ft 296 kts 56°
2026-05-06 14:01 62.70773 7.43933 10653 ft 309 kts 56°
2026-05-06 14:01 62.72002 7.47965 11107 ft 329 kts 56°
2026-05-06 14:01 62.73303 7.52264 11478 ft 350 kts 56°
2026-05-06 14:02 62.74676 7.56821 11813 ft 369 kts 56°
2026-05-06 14:02 62.76121 7.61627 12174 ft 386 kts 56°
2026-05-06 14:02 62.77624 7.66593 12708 ft 395 kts 56°
2026-05-06 14:02 62.79152 7.71585 13532 ft 397 kts 56°
2026-05-06 14:03 62.80705 7.76623 14164 ft 402 kts 56°
2026-05-06 14:03 62.82275 7.81696 14833 ft 405 kts 55°
2026-05-06 14:03 62.83861 7.86823 15480 ft 408 kts 56°
2026-05-06 14:03 62.85457 7.91990 16122 ft 411 kts 56°
2026-05-06 14:04 62.87067 7.97209 16751 ft 415 kts 56°
2026-05-06 14:04 62.88689 8.02474 17369 ft 418 kts 56°
2026-05-06 14:04 62.90319 8.07785 17885 ft 424 kts 56°
2026-05-06 14:04 62.91947 8.13095 17972 ft 425 kts 56°
2026-05-06 14:05 62.93598 8.18485 17966 ft 425 kts 56°
2026-05-06 14:05 62.95245 8.23879 17962 ft 425 kts 56°
2026-05-06 14:05 62.96889 8.29278 17968 ft 424 kts 56°
2026-05-06 14:05 62.98526 8.34666 17961 ft 423 kts 56°
2026-05-06 14:06 63.00157 8.40038 17963 ft 422 kts 56°
2026-05-06 14:06 63.01784 8.45417 17967 ft 422 kts 56°
2026-05-06 14:06 63.03409 8.50799 17974 ft 422 kts 56°
2026-05-06 14:06 63.05032 8.56191 17969 ft 422 kts 56°
2026-05-06 14:07 63.06652 8.61582 17967 ft 421 kts 57°
2026-05-06 14:07 63.08269 8.66977 17964 ft 422 kts 57°
2026-05-06 14:07 63.09883 8.72377 17970 ft 421 kts 57°
2026-05-06 14:07 63.11581 8.77645 17950 ft 421 kts 47°
2026-05-06 14:08 63.13827 8.81753 17974 ft 420 kts 33°
2026-05-06 14:08 63.16049 8.85932 17930 ft 420 kts 52°
2026-05-06 14:08 63.17377 8.91643 17951 ft 420 kts 76°
2026-05-06 14:08 63.17612 8.98026 17974 ft 418 kts 97°
2026-05-06 14:09 63.16908 9.04218 17968 ft 414 kts 116°
2026-05-06 14:09 63.15498 9.09739 17971 ft 413 kts 124°
2026-05-06 14:09 63.14111 9.15325 17963 ft 416 kts 117°
2026-05-06 14:09 63.12930 9.21151 17951 ft 417 kts 110°
2026-05-06 14:10 63.12281 9.27396 17973 ft 418 kts 100°
2026-05-06 14:10 63.11892 9.33667 17965 ft 418 kts 97°
2026-05-06 14:10 63.11605 9.40071 17961 ft 418 kts 96°
2026-05-06 14:10 63.11381 9.46503 17965 ft 418 kts 95°
2026-05-06 14:11 63.11186 9.52905 17964 ft 418 kts 95°
2026-05-06 14:11 63.11005 9.59336 17960 ft 422 kts 94°
2026-05-06 14:11 63.11137 9.65841 17963 ft 429 kts 82°
2026-05-06 14:11 63.11600 9.72395 17940 ft 432 kts 82°
2026-05-06 14:12 63.12067 9.78976 17948 ft 434 kts 82°
2026-05-06 14:12 63.12538 9.85556 17941 ft 433 kts 82°
2026-05-06 14:12 63.13008 9.92112 17949 ft 432 kts 82°
2026-05-06 14:12 63.13497 9.98650 17949 ft 430 kts 78°
2026-05-06 14:13 63.14386 10.04871 17958 ft 427 kts 69°
2026-05-06 14:13 63.15425 10.10919 17455 ft 419 kts 70°
2026-05-06 14:13 63.16431 10.16908 16888 ft 413 kts 70°
2026-05-06 14:13 63.17417 10.22849 16324 ft 409 kts 70°
2026-05-06 14:14 63.18386 10.28726 15761 ft 405 kts 70°
2026-05-06 14:14 63.19345 10.34564 15227 ft 401 kts 70°
2026-05-06 14:14 63.20290 10.40337 14751 ft 396 kts 70°
2026-05-06 14:14 63.21222 10.46048 14265 ft 392 kts 71°
2026-05-06 14:15 63.22144 10.51712 13798 ft 389 kts 71°
2026-05-06 14:15 63.23055 10.57330 13271 ft 386 kts 71°
2026-05-06 14:15 63.23958 10.62912 12746 ft 383 kts 71°
2026-05-06 14:15 63.24850 10.68449 12246 ft 380 kts 70°
2026-05-06 14:16 63.25735 10.73959 11754 ft 377 kts 70°
2026-05-06 14:16 63.26611 10.79426 11242 ft 374 kts 70°
2026-05-06 14:16 63.27477 10.84848 10765 ft 372 kts 70°
2026-05-06 14:16 63.28338 10.90255 10286 ft 370 kts 70°
2026-05-06 14:17 63.29192 10.95637 9816 ft 368 kts 70°
2026-05-06 14:17 63.30040 11.00991 9322 ft 366 kts 70°
2026-05-06 14:17 63.30878 11.06303 8916 ft 362 kts 70°
2026-05-06 14:17 63.31707 11.11565 8495 ft 359 kts 70°
2026-05-06 14:18 63.32516 11.16721 8085 ft 355 kts 70°
2026-05-06 14:18 63.33324 11.21889 7693 ft 352 kts 70°
2026-05-06 14:18 63.34125 11.27022 7335 ft 347 kts 70°
2026-05-06 14:18 63.34901 11.32008 6936 ft 334 kts 70°
2026-05-06 14:19 63.35645 11.36805 6556 ft 321 kts 70°
2026-05-06 14:19 63.36361 11.41437 6166 ft 310 kts 70°
2026-05-06 14:19 63.37050 11.45896 5769 ft 299 kts 70°
2026-05-06 14:19 63.38022 11.49847 5326 ft 286 kts 42°
2026-05-06 14:20 63.39688 11.51900 4963 ft 268 kts
2026-05-06 14:20 63.41467 11.51649 4609 ft 251 kts 340°
2026-05-06 14:20 63.43102 11.50414 4382 ft 245 kts 338°
2026-05-06 14:20 63.44530 11.48573 4179 ft 232 kts 312°
2026-05-06 14:21 63.45346 11.45653 4040 ft 220 kts 287°
2026-05-06 14:21 63.45614 11.42391 4030 ft 209 kts 274°
2026-05-06 14:21 63.45665 11.39160 4025 ft 207 kts 271°
2026-05-06 14:21 63.45678 11.36017 4043 ft 195 kts 270°
2026-05-06 14:22 63.45684 11.33038 4009 ft 189 kts 270°
2026-05-06 14:22 63.45690 11.30081 3729 ft 189 kts 270°
2026-05-06 14:22 63.45695 11.27192 3482 ft 185 kts 270°
2026-05-06 14:22 63.45700 11.24349 3198 ft 180 kts 270°
2026-05-06 14:23 63.45706 11.21572 2936 ft 177 kts 270°
2026-05-06 14:23 63.45711 11.18789 2647 ft 181 kts 270°
2026-05-06 14:23 63.45716 11.15951 2334 ft 182 kts 270°
2026-05-06 14:23 63.45721 11.13145 2067 ft 179 kts 269°
2026-05-06 14:24 63.45725 11.10456 1829 ft 162 kts 270°
2026-05-06 14:24 63.45729 11.08081 1558 ft 146 kts 270°
2026-05-06 14:24 63.45733 11.05836 1295 ft 147 kts 270°
2026-05-06 14:24 63.45740 11.03530 1000 ft 148 kts 269°
2026-05-06 14:25 63.45726 11.01279 722 ft 141 kts 271°
2026-05-06 14:25 63.45753 10.99097 561 ft 140 kts 271°
2026-05-06 14:25 63.45745 10.96924 379 ft 140 kts 272°
2026-05-06 14:25 63.45757 10.94802 174 ft 136 kts 273°
2026-05-06 14:26 63.45758 10.92775 53 ft 118 kts 270°
2026-05-06 14:26 63.45763 10.91423 39 ft 61 kts 270°
2026-05-06 14:26 63.45755 10.90757 33 ft 32 kts 262°
2026-05-06 14:26 63.45695 10.90419 27 ft 17 kts 221°
2026-05-06 14:27 63.45614 10.90393 31 ft 10 kts 139°
2026-05-06 14:27 63.45596 10.90593 35 ft 19 kts 90°
2026-05-06 14:27 63.45594 10.90978 41 ft 28 kts 90°
2026-05-06 14:27 63.45593 10.91377 43 ft 15 kts 93°
2026-05-06 14:28 63.45530 10.91474 43 ft 10 kts 176°
2026-05-06 14:28 63.45504 10.91477 45 ft 0 kts 178°